RH
10 9 9 12 14 14 15 17 20 20 22 26 28 25 25 31 30 34 47 36 32 39 41 42 39 43 44 44 46 54 50 45 47 45 39 43 42 42 47 65 91 83 72 63 58 83 100 100 99 100 78 72 78 81
7 9 10 10 11 14 13 14 15 16 15 16 17 19 19 21 30 33 34 28 30 30 33 40 44 45 46 49 47 47 46 52 48 44 46 50 53 44 42 64 83 100 98 94 100 100 100 100 100 77 75 79 72 93
8 8 8 10 11 12 11 10 12 14 17 17 16 16 17 20 24 25 28 28 30 25 30 36 38 40 49 52 55 55 51 48 54 48 45 49 45 48 44 65 98 86 92 97 90 86 79 73 71 76 78 86 87 90
7 7 9 9 10 11 11 10 9 10 11 14 15 17 18 18 20 22 23 27 26 24 26 35 41 52 50 52 47 48 49 42 44 47 43 42 44 47 49 63 74 85 91 100 99 98 92 84 70 76 81 91 99 87
9 6 6 9 10 11 11 10 10 10 11 12 12 12 13 13 15 16 14 17 22 23 24 40 46 44 48 48 50 50 54 56 55 49 39 46 48 47 46 49 68 92 100 100 100 100 100 87 76 66 77 100 82 82
9 10 9 8 8 10 10 10 10 10 10 11 12 13 13 16 17 18 16 19 22 26 26 31 32 37 39 42 40 43 47 48 49 49 45 46 49 41 44 60 80 99 96 92 100 100 93 90 97 69 91 86 86 79
8 9 10 10 8 9 10 10 10 10 10 10 11 12 14 16 18 20 24 30 35 35 36 36 36 36 38 39 42 41 44 50 50 44 43 49 46 41 42 49 100 85 88 100 100 100 100 92 97 82 100 84 96 87
7 8 10 11 10 9 9 10 10 10 10 11 12 13 15 16 17 17 22 24 28 26 28 29 28 32 34 36 44 49 47 46 41 40 40 43 44 39 38 85 95 94 99 100 100 89 93 100 83 98 90 96 98 95
8 8 9 11 11 11 10 9 10 10 11 11 12 13 13 12 14 22 25 30 32 27 26 24 26 29 30 34 40 45 44 36 37 34 42 41 37 35 84 76 74 98 100 100 91 100 100 99 86 95 100 92 97 99
10 8 10 10 10 11 11 11 10 10 11 12 12 11 8 10 15 16 18 19 19 15 14 16 23 27 28 34 35 38 38 34 28 36 39 33 43 63 71 86 100 100 100 94 100 96 91 83 100 100 100 100 100 99
12 8 9 11 11 11 10 11 11 11 11 9 8 8 12 15 18 19 22 20 15 14 13 20 25 30 38 40 42 39 32 31 29 42 42 40 61 95 100 100 100 100 100 99 91 99 100 89 81 100 100 100 98 93
16 11 8 10 11 11 11 11 10 9 9 10 12 14 15 14 14 14 12 12 11 11 18 24 29 29 35 36 42 43 52 42 36 54 54 72 100 100 100 100 100 100 96 91 83 88 100 99 100 100 94 94 93 89
17 16 11 10 12 11 10 10 11 10 11 12 11 12 12 12 11 9 9 10 10 13 20 26 24 48 70 74 69 71 69 40 53 51 61 100 100 100 98 91 97 90 73 69 85 98 92 90 100 92 86 86 87 81
17 18 14 10 11 12 10 10 10 11 10 9 9 9 9 8 8 9 12 15 22 26 40 60 80 80 100 73 58 68 48 45 45 59 89 87 100 100 98 74 66 75 66 76 77 79 86 79 84 90 87 86 77 68
14 16 16 13 10 11 11 10 11 10 9 9 9 9 9 10 15 15 17 18 22 45 87 85 60 80 87 59 82 45 48 38 59 94 97 96 95 67 60 59 72 87 78 75 83 80 78 68 77 82 85 78 68 64
13 14 15 15 13 10 11 10 9 9 9 8 8 10 14 14 17 18 18 21 22 32 30 23 24 32 35 60 32 30 20 36 57 36 40 48 44 52 65 65 79 83 92 92 72 60 68 73 80 79 68 64 63 67
7 12 14 14 13 10 9 10 9 8 8 9 12 12 16 14 16 17 18 21 21 22 15 14 14 16 17 14 11 15 22 41 49 45 53 64 78 73 82 94 85 89 82 63 63 65 69 69 66 62 62 57 64 60
5 7 10 14 14 11 8 8 12 13 14 13 12 12 13 13 14 15 14 12 14 14 11 11 13 12 12 12 15 23 22 22 34 38 43 61 67 71 79 71 49 46 49 48 48 57 58 48 55 58 55 59 55 60
5 5 6 9 11 13 11 10 16 18 17 16 14 12 12 12 13 15 11 10 12 11 11 10 10 12 14 15 17 15 15 15 14 14 20 27 30 30 29 30 32 40 37 39 41 39 46 53 51 54 52 55 60 78
4 4 5 7 11 13 16 35 34 18 14 16 17 15 14 13 12 13 11 11 12 11 12 13 16 16 15 16 17 17 15 15 16 22 26 26 28 32 34 29 26 27 33 40 45 49 50 50 51 48 54 62 75 76
4 4 4 6 9 13 28 31 30 27 17 17 17 17 17 16 16 15 13 14 14 12 14 16 16 19 20 16 16 14 16 19 22 25 28 26 25 25 23 27 33 38 47 51 49 50 52 44 48 53 67 63 70 73
4 4 5 5 9 17 24 33 42 42 41 23 17 12 13 16 16 17 20 22 20 17 15 16 18 18 18 18 17 17 18 20 21 22 22 23 26 29 33 36 42 46 44 46 51 43 46 51 60 60 65 63 65 77
5 6 6 7 12 19 28 27 32 28 21 19 17 15 16 20 23 26 30 27 24 26 29 30 31 32 32 30 28 29 28 27 27 28 29 30 32 38 38 33 32 39 42 39 44 51 57 59 67 71 70 63 68 89
7 8 8 11 17 21 21 20 22 22 17 16 17 17 20 22 26 29 24 22 23 24 24 23 23 23 26 27 26 25 23 21 21 24 28 34 33 25 24 27 33 37 44 53 54 60 73 70 69 66 63 67 65 64
7 7 9 11 13 19 22 24 27 28 32 34 37 38 36 32 30 26 22 19 18 17 15 14 14 15 15 16 16 17 17 17 19 20 18 17 20 26 36 45 50 61 69 76 80 82 76 75 72 79 79 66 60 57
8 12 16 21 25 21 25 31 40 54 63 78 74 51 35 32 26 21 20 18 16 14 14 14 15 16 16 17 21 22 20 18 17 18 23 33 46 54 64 71 77 82 87 97 94 80 77 81 85 77 62 60 53 53
15 18 19 21 29 34 44 63 74 85 86 74 65 54 45 37 33 34 32 34 32 29 28 27 24 22 25 26 26 27 24 27 35 46 53 62 71 80 90 87 89 99 100 94 82 79 78 74 68 69 65 59 55 55
19 21 22 26 29 48 66 72 79 86 74 67 59 51 46 44 43 43 41 36 32 33 32 32 34 34 32 27 30 35 46 54 58 62 73 91 99 100 97 88 92 91 83 80 86 87 87 83 72 64 60 57 57 56
28 30 37 49 57 66 75 76 74 63 47 48 51 48 39 32 51 52 52 46 44 41 41 40 42 38 37 40 48 59 59 64 79 99 100 100 97 87 94 93 86 88 97 99 91 86 74 66 59 54 51 50 50 50
35 42 48 51 53 58 60 49 42 42 48 41 36 34 36 45 64 55 53 51 52 50 50 46 47 44 45 57 67 71 91 100 100 99 99 94 97 98 89 86 94 100 96 83 73 68 62 58 55 52 50 51 50 49
37 40 42 45 42 38 36 33 33 32 34 34 28 30 34 43 66 71 59 58 49 56 48 52 48 48 66 75 96 100 100 100 100 92 88 87 93 94 98 100 97 81 80 79 67 63 61 60 57 53 52 51 48 48
39 44 43 42 41 41 41 40 39 38 38 39 37 38 35 58 62 60 56 52 54 50 50 53 57 86 100 100 100 100 100 100 96 88 84 89 98 100 100 98 92 88 79 74 72 68 61 58 56 53 53 51 48 51
53 52 43 36 30 24 22 21 21 22 25 28 30 36 43 55 66 61 53 48 46 54 59 89 100 100 100 97 90 91 97 90 83 90 100 100 100 99 97 97 80 73 75 80 78 64 55 55 54 53 52 50 51 53
Wind_Speed
74 78 82 88 94 102 107 113 115 119 124 127 131 132 127 124 119 119 118 114 111 108 106 100 98 97 95 91 90 89 87 83 82 73 70 64 61 61 63 62 56 57 56 57 54 48 46 54 54 59 60 60 60 61
70 75 79 87 96 102 103 107 110 112 115 120 127 129 128 122 119 121 116 116 113 109 108 105 102 99 99 98 94 93 89 88 82 80 76 71 66 67 64 60 62 58 59 56 54 55 59 60 63 62 63 63 64 62
64 69 75 82 87 95 99 102 107 110 111 113 118 121 122 120 123 121 121 120 117 112 110 105 103 102 102 99 100 98 95 92 88 86 81 76 68 67 63 63 63 63 59 60 63 64 65 62 65 65 65 65 66 65
58 63 68 74 82 86 90 94 97 102 105 110 113 117 118 120 119 120 122 120 118 118 113 108 107 106 103 102 100 96 94 93 93 91 86 80 72 70 64 63 62 64 65 63 62 67 64 63 65 64 63 63 62 67
56 59 63 68 73 78 82 84 88 92 95 99 103 105 108 112 115 117 119 119 120 119 111 109 110 108 105 103 100 101 102 97 95 92 88 82 79 73 70 66 61 62 64 66 67 69 66 65 66 64 60 63 67 67
54 56 58 61 67 72 75 76 79 83 88 91 92 95 98 101 107 110 109 108 111 111 109 109 108 106 107 105 105 104 103 99 96 95 89 85 79 77 73 64 65 66 65 65 72 70 66 66 65 63 62 64 66 63
49 52 56 59 62 67 71 73 74 75 77 80 85 88 90 93 95 95 95 101 108 112 109 110 108 105 102 104 104 103 102 101 95 93 89 85 80 76 72 66 65 64 63 71 74 70 67 66 63 62 63 64 65 66
45 48 52 56 59 61 65 68 69 71 73 75 78 81 85 88 92 89 91 96 102 104 107 110 106 103 101 101 100 95 93 94 92 92 88 85 81 76 67 64 64 66 69 73 73 70 65 66 64 62 66 63 63 65
42 45 48 52 54 57 61 63 66 68 70 74 77 82 88 83 75 79 86 92 98 103 104 103 101 101 100 98 95 91 91 87 87 85 85 84 80 69 65 67 68 67 74 68 65 67 67 64 63 59 62 64 64 66
43 45 47 50 52 54 56 59 62 64 68 74 82 82 63 62 72 81 88 94 98 97 96 91 92 92 92 91 89 89 90 87 83 81 81 74 71 71 69 67 66 72 68 66 67 68 67 64 63 63 65 64 64 66
42 44 46 48 50 51 54 56 60 65 71 67 57 54 64 74 81 82 86 87 85 84 82 79 81 83 84 85 87 88 86 84 81 79 78 72 70 70 71 72 69 66 69 69 66 65 68 67 65 64 67 68 69 69
43 43 44 46 48 50 52 55 56 54 51 52 55 66 75 79 82 85 83 79 76 76 68 72 74 76 80 83 83 84 84 82 78 79 77 72 70 71 79 79 72 69 70 69 70 70 70 69 69 69 68 69 70 66
45 44 44 46 47 49 50 51 51 54 56 58 61 67 73 77 78 74 74 68 65 58 61 65 68 74 76 77 81 82 82 76 79 77 71 70 73 82 84 77 75 75 72 70 70 70 70 69 70 72 71 67 66 64
46 45 45 46 47 48 48 49 49 50 53 54 58 63 65 65 64 66 54 50 53 49 61 67 71 74 78 79 81 80 78 79 74 71 73 76 84 83 77 78 77 76 74 74 72 72 72 71 69 71 67 63 61 59
47 48 47 46 46 47 48 48 47 50 51 53 58 58 56 50 47 46 51 50 53 56 63 67 68 73 78 78 79 71 75 68 65 71 78 91 86 80 78 77 77 77 75 74 73 72 72 66 64 63 60 57 56 54
49 49 47 47 46 47 48 50 51 50 51 54 50 40 40 38 41 46 49 51 50 54 58 59 62 63 63 72 57 58 53 53 66 73 75 79 76 74 75 73 76 76 75 74 69 63 62 60 61 57 54 55 52 41
46 47 47 47 47 48 48 51 49 50 48 41 39 44 44 47 49 54 52 52 56 55 51 58 59 58 59 55 47 48 53 65 76 72 72 73 74 69 71 74 70 69 68 61 57 56 57 54 51 49 50 48 36 32
46 50 50 51 48 45 44 42 42 40 40 44 46 48 48 50 52 50 50 53 51 55 57 55 58 52 46 46 50 59 59 64 71 64 62 68 67 68 69 67 61 57 51 47 48 49 46 44 44 45 38 30 29 28
45 45 45 44 42 39 37 34 39 42 44 45 46 45 46 48 49 47 46 49 48 48 49 45 40 38 46 52 58 61 64 59 58 59 60 61 60 60 56 49 46 43 39 38 37 36 36 39 40 30 25 27 26 28
41 41 42 44 44 42 37 38 40 42 42 44 45 45 46 45 45 44 45 45 45 42 38 38 44 46 45 50 53 50 48 49 54 55 56 53 48 43 36 32 29 29 29 30 32 35 37 32 24 24 26 25 26 28
38 39 40 41 42 41 43 42 41 39 37 37 40 40 41 41 40 38 37 34 36 40 41 43 43 43 45 44 42 41 41 45 47 50 46 38 33 29 25 24 25 27 29 32 33 29 24 22 24 24 23 22 25 28
36 36 37 40 43 44 45 45 44 43 40 39 38 35 34 34 33 31 30 34 36 39 38 37 38 40 39 40 41 43 44 43 38 35 33 30 25 22 24 26 30 32 30 27 24 22 24 24 22 20 21 23 27 31
37 38 39 42 45 48 50 47 43 39 36 33 31 30 30 31 30 30 32 35 35 35 35 34 32 34 36 37 37 36 34 32 28 25 25 25 24 26 30 32 29 24 21 23 26 26 24 21 19 19 22 26 31 37
41 43 45 49 49 46 43 40 36 35 33 31 30 28 28 30 30 31 33 32 32 32 33 33 34 34 31 29 28 26 24 24 25 24 26 30 34 32 24 20 22 27 29 28 24 21 19 18 18 20 23 27 33 36
45 48 50 48 47 47 43 40 37 33 30 31 32 32 33 36 36 34 34 36 35 35 34 32 30 28 26 24 23 24 27 29 33 35 33 28 23 26 32 35 34 30 27 23 19 17 17 17 18 21 26 31 32 33
48 49 46 43 41 40 42 40 40 40 40 39 38 37 36 36 35 36 36 36 35 33 32 31 28 27 26 25 26 32 33 33 30 27 30 36 42 41 38 34 31 26 22 17 15 15 16 18 22 26 28 30 31 33
49 47 43 43 43 42 42 42 43 44 45 43 41 39 36 35 32 30 28 26 25 24 25 25 27 28 32 37 39 36 33 36 41 46 47 45 42 37 33 28 24 19 16 14 13 14 17 21 24 28 32 33 36 39
48 45 44 44 44 47 48 50 50 47 44 42 39 36 32 29 28 27 25 24 25 27 31 34 40 42 44 41 40 44 50 52 51 48 44 38 34 30 26 22 18 14 11 11 13 17 22 26 29 32 35 38 40 44
47 45 43 44 47 48 49 48 47 45 41 38 36 33 30 28 28 26 27 30 34 38 44 49 49 46 44 48 55 55 53 49 45 40 36 31 28 24 19 15 13 11 11 14 18 23 23 27 31 34 38 42 44 47
49 47 45 45 46 47 47 46 44 43 41 38 34 29 28 29 29 32 34 38 43 49 49 47 50 52 59 57 54 50 45 42 39 35 31 28 22 18 16 13 11 13 18 19 20 24 28 32 35 38 42 44 46 49
48 46 45 44 44 44 42 41 41 41 39 35 31 35 29 26 30 29 39 48 50 52 52 56 56 57 53 50 46 43 40 36 33 29 24 19 17 15 12 12 15 16 19 23 26 30 35 39 40 41 43 46 48 50
41 39 38 35 34 33 32 32 32 33 34 34 33 31 31 34 36 44 51 54 59 58 59 56 54 51 47 43 41 39 36 32 29 24 20 17 14 14 16 19 21 23 26 28 32 37 40 42 45 47 49 50 51 52
35 34 32 31 31 31 32 32 33 35 37 38 38 39 43 44 49 55 58 60 61 60 57 54 50 48 45 41 38 34 31 28 25 21 17 15 17 21 22 24 26 28 33 37 40 42 45 47 49 50 51 54 55 56
Wind_Direction
219 218 215 216 221 224 222 224 225 226 229 230 231 231 230 234 234 234 235 236 237 238 239 240 241 244 247 249 254 255 255 259 262 263 262 263 262 264 266 267 267 272 276 279 285 290 280 277 285 288 291 294 297 302
217 218 218 217 217 221 222 223 225 226 227 229 230 231 230 230 231 232 235 235 235 235 237 238 240 243 243 246 250 251 253 256 259 261 261 266 267 267 266 268 270 275 277 279 274 269 268 273 281 286 290 295 296 300
217 217 217 218 220 221 224 224 224 224 224 227 228 228 229 229 229 231 232 233 234 234 234 235 237 240 245 247 249 252 254 255 259 261 261 266 262 264 265 262 263 267 269 272 275 273 276 281 283 284 289 293 296 299
218 217 216 216 218 222 224 225 224 224 225 225 227 228 228 229 231 233 233 233 234 234 234 235 237 237 241 246 247 249 251 254 254 257 257 258 260 262 260 259 259 262 265 270 272 273 276 279 281 284 287 294 296 298
218 216 214 214 216 219 224 224 225 224 224 226 227 228 229 229 230 231 232 232 233 234 234 236 238 239 242 243 244 246 249 251 253 255 255 257 260 260 261 261 261 261 263 266 272 274 276 279 282 286 289 293 294 298
216 217 217 216 215 217 220 222 223 224 224 224 226 227 227 228 229 229 230 231 233 235 236 236 236 238 240 241 243 244 246 249 252 255 255 257 258 258 259 257 257 260 262 264 268 272 277 278 280 287 290 291 295 297
213 214 215 215 214 214 217 219 220 220 222 223 224 224 226 227 227 228 228 229 230 232 234 236 236 238 240 240 243 245 249 250 252 251 253 255 256 256 255 255 255 258 263 266 265 268 274 278 283 289 288 292 294 296
210 210 211 212 213 214 215 217 218 219 219 220 222 223 224 224 224 225 227 230 231 232 233 235 236 237 239 240 242 245 246 248 249 251 253 252 254 254 255 253 257 257 258 260 267 271 274 278 283 286 289 292 295 297
209 209 209 209 210 212 213 214 215 216 217 218 218 221 221 220 222 224 225 227 229 231 233 234 236 238 239 241 243 244 246 248 248 250 250 251 252 254 251 252 254 256 257 263 264 269 274 276 280 284 284 287 291 294
206 206 207 208 208 208 210 211 212 214 215 216 218 219 216 218 222 224 224 226 228 230 232 233 234 235 237 240 242 243 245 247 248 247 249 252 251 250 250 251 252 256 258 261 263 267 270 273 275 279 282 286 289 292
204 203 204 205 206 207 208 208 210 211 214 216 217 214 214 216 219 222 224 226 228 229 231 231 233 235 237 239 240 243 245 245 245 245 247 248 247 249 250 250 251 255 259 262 263 266 269 272 275 277 280 285 287 291
201 201 201 204 204 204 206 208 210 212 211 210 210 211 213 215 217 219 221 222 225 226 226 230 232 234 236 237 237 239 240 241 241 242 245 245 246 247 249 251 252 252 256 259 262 263 267 271 274 275 278 280 285 289
200 200 199 201 203 203 204 205 205 206 206 207 209 211 214 216 218 219 221 222 226 227 229 233 234 234 235 238 237 238 238 242 243 244 244 244 247 248 249 250 252 255 258 259 261 264 266 269 271 275 277 280 284 285
199 200 199 199 201 202 202 203 202 203 204 206 211 214 214 216 218 221 222 226 230 229 229 231 231 231 231 233 236 236 239 241 244 246 246 246 245 247 250 253 256 257 259 262 265 267 268 270 273 275 277 280 281 282
200 200 200 200 199 200 201 201 201 202 201 204 209 210 211 213 217 218 220 220 221 221 224 227 227 230 232 234 237 238 240 244 245 246 245 244 248 252 253 255 257 258 260 262 264 267 267 271 272 274 276 278 277 276
199 200 199 200 199 200 199 201 201 200 201 205 205 201 204 201 203 206 211 216 221 223 221 225 230 232 235 238 238 243 246 246 247 245 245 248 250 252 255 256 258 261 261 260 264 265 267 267 268 272 274 273 271 273
198 198 201 202 202 201 199 201 201 202 202 198 196 196 196 195 198 203 207 211 214 218 220 222 227 229 231 237 237 238 238 238 243 243 245 248 249 250 252 255 255 258 261 262 262 261 261 264 267 268 265 263 265 263
194 197 199 200 203 201 201 197 198 199 200 200 202 201 199 199 204 205 207 213 214 216 224 226 226 228 229 228 230 231 232 233 239 242 242 247 248 249 252 254 256 258 258 258 259 262 263 261 259 253 256 257 250 245
193 195 198 200 199 198 199 189 189 194 199 202 204 205 206 206 208 208 210 217 215 219 224 230 232 228 224 222 224 226 227 230 233 236 238 241 244 248 252 257 257 256 254 254 253 252 246 244 246 249 246 237 237 246
188 189 189 191 193 192 184 179 189 195 197 199 201 204 207 209 210 209 213 216 215 218 222 223 221 220 221 223 227 230 229 229 234 238 241 243 243 246 246 245 243 240 239 238 235 233 236 239 242 230 224 229 243 257
183 184 184 183 184 180 176 181 187 194 198 198 199 202 205 206 208 208 209 210 213 211 210 211 210 212 217 219 222 225 227 228 231 234 238 239 236 236 232 223 219 220 221 223 227 231 231 226 213 212 225 242 258 272
177 175 177 178 174 174 176 180 185 187 191 195 198 200 197 196 197 198 197 202 205 208 209 209 210 212 214 216 218 221 225 229 233 235 234 232 227 218 210 209 212 216 219 221 223 213 198 196 207 223 242 259 274 286
169 169 170 171 171 172 176 182 184 186 187 187 190 194 191 189 191 191 196 202 203 204 206 208 209 210 212 215 217 220 222 224 225 223 216 212 205 202 204 209 212 212 208 195 182 181 191 205 221 243 263 278 287 291
163 162 166 165 168 172 177 178 177 180 180 179 181 180 181 182 182 188 192 195 198 200 201 202 205 208 205 209 213 213 211 206 198 196 191 190 195 201 200 189 176 169 166 169 180 193 207 227 249 268 284 296 299 299
165 165 167 170 173 170 170 169 170 170 170 170 171 173 176 179 183 186 190 196 198 198 200 200 198 197 194 192 189 185 181 176 178 184 188 186 175 162 154 152 153 160 171 182 195 214 234 252 270 287 297 306 304 306
160 159 161 162 163 166 163 162 162 161 160 160 165 173 178 182 186 190 193 197 200 201 201 197 192 188 183 175 177 180 183 185 180 170 155 150 146 147 152 159 167 174 182 198 221 238 257 278 292 298 305 306 311 316
157 158 158 157 159 160 157 153 153 154 158 165 170 174 177 182 183 183 184 185 188 190 186 183 178 172 171 175 175 172 163 152 148 144 145 150 153 157 163 170 176 185 206 225 245 267 283 293 301 308 309 311 315 318
158 157 159 159 158 156 155 157 159 162 166 168 170 173 174 170 169 166 168 166 164 160 156 158 160 166 170 169 161 150 146 146 148 150 153 156 161 167 173 181 192 207 232 257 278 287 292 297 303 306 309 313 314 315
157 158 157 157 157 157 159 162 165 170 169 169 171 173 173 164 160 160 157 153 154 153 159 159 163 160 159 152 148 148 150 151 152 156 161 166 171 179 184 196 212 235 261 276 286 295 299 303 305 308 311 312 312 313
161 161 160 160 161 165 170 173 172 169 171 174 175 172 155 150 156 148 147 152 154 160 157 160 157 154 150 149 152 152 153 157 162 167 171 177 182 189 201 220 243 267 279 287 294 300 302 303 306 309 311 313 314 318
165 165 166 169 171 174 177 177 176 176 178 176 170 148 144 144 149 151 155 152 154 157 157 154 152 151 152 154 155 160 163 167 172 177 181 187 192 203 222 247 264 274 289 294 296 301 303 303 305 309 311 313 315 317
169 170 172 176 177 178 180 183 182 180 181 183 185 179 166 157 154 155 158 158 158 157 154 153 153 154 156 160 165 169 174 179 183 188 196 205 217 237 253 261 266 280 289 297 306 310 309 307 307 308 308 310 314 318
168 171 172 173 174 175 174 172 172 171 171 171 171 165 160 160 158 161 161 159 158 156 156 158 160 164 168 172 176 179 183 187 193 202 214 226 239 253 263 270 277 284 295 303 305 309 311 310 309 309 309 312 317 319